Flag for U.S.A. Weather past 2 weeks in St. Petersburg, Florida, U.S.A.

Now
67 °F

Sunny.


Feels Like: 67 °F
Forecast: 63 / 76 °F
Wind: 9 mph from North

Location: Whitted Airport


UV Index: 7 (High)

Visibility: 10 mi


Pressure: 30.05 "Hg

Humidity: 81%

Dew point: 61 °F

Location of St. PetersburgLocation

Historic Weather in St. Petersburg

°F

St. Petersburg temperature yesterday

Maximum temperature yesterday: 73 °F (at 3:53 AM)
Minimum temperature yesterday: 65 °F (at 9:03 PM)
Average temperature yesterday: 68 °F

Past Weeks' High & Low Weather Summary

 TemperatureHumidityPressure
High83 °F (Apr 7, 12:53 PM)96% (Apr 19, 12:53 AM)30.28 "Hg (Apr 19, 12:53 AM)
Low55 °F (Apr 16, 8:53 AM)35% (Apr 10, 3:53 PM)29.73 "Hg (Apr 8, 4:53 AM)
Average72 °F76%30.01 "Hg
* Reported Apr 5 7:53 PM — Apr 20 7:53 PM, St. Petersburg, Weather by CustomWeather, © 2014

Note: Actual official high and low records may vary slightly from our data, if they occured in-between our weather recording intervals... More about our weather records

Advertising

Historic Weather Conditions — Data for Previous 24 hours

 ConditionsComfort  
Time TempWeatherWind HumidityBarometerVisibility
7:53 PM
Apr 20
68 °FSunny.9 mph76%30.03 "Hg10 mi
6:53 PM70 °FSunny.10 mph71%30.03 "Hg10 mi
5:53 PM72 °FSunny.10 mph66%30.03 "Hg10 mi
4:53 PM72 °FOvercast.9 mph66%30.02 "Hg10 mi
3:53 PM71 °FOvercast.9 mph68%30.03 "Hg10 mi
2:53 PM72 °FOvercast.3 mph64%30.03 "Hg10 mi
1:53 PM71 °FPartly sunny.9 mph68%30.05 "Hg10 mi
12:53 PM70 °FOvercast.7 mph71%30.06 "Hg10 mi
11:53 AM70 °FPartly sunny.10 mph71%30.06 "Hg10 mi
10:53 AM69 °FScattered clouds.13 mph73%30.06 "Hg10 mi
9:53 AM67 °FSunny.9 mph81%30.05 "Hg10 mi
8:53 AM65 °FOvercast.10 mph87%30.04 "Hg10 mi
7:53 AM64 °FMostly cloudy.9 mph90%30.02 "Hg10 mi
6:53 AM64 °FMostly cloudy.9 mph90%30.01 "Hg10 mi
5:53 AM65 °FOvercast.7 mph91%29.99 "Hg10 mi
4:53 AM64 °FOvercast.7 mph90%29.97 "Hg10 mi
3:53 AM64 °FOvercast.6 mph90%29.96 "Hg10 mi
2:53 AM64 °FOvercast.7 mph90%29.97 "Hg10 mi
2:03 AM64 °FMostly cloudy.7 mph90%29.99 "Hg10 mi
1:53 AM64 °FMostly cloudy.7 mph94%29.98 "Hg10 mi
1:00 AM64 °FMostly cloudy.10 mph90%29.99 "Hg10 mi
11:53 PM
Apr 19
65 °FLight rain. Overcast.7 mph87%30.00 "Hg9 mi
10:53 PM65 °FMostly cloudy.7 mph85%29.99 "Hg10 mi
9:53 PM65 °FOvercast.6 mph81%29.97 "Hg10 mi
9:03 PM65 °FMostly cloudy.12 mph78%29.97 "Hg10 mi
Weather by CustomWeather, © 2014

See weather overview